Regional Weather Roundup
Issued by NWS Upton, NY

Home | Current Version | Previous Version | Text Only | Print | Product List | Glossary On
Versions: 1 2 3 4 5 6 7 8 9 10 11 12 13 14 15 16 17 18 19 20 21 22 23 24 25 26 27
000
ASUS41 KOKX 240709
RWROKX

REGIONAL WEATHER ROUNDUP
NATIONAL WEATHER SERVICE NEW YORK NY
300 AM EDT SUN SEP 24 2017

NOTE: "FAIR" INDICATES FEW OR NO CLOUDS BELOW 12,000 FEET WITH NO
SIGNIFICANT WEATHER AND/OR OBSTRUCTIONS TO VISIBILITY.

NYZ071-072-176-178-NJZ106-104-240800-
NEW YORK CITY METRO AREA

CITY           SKY/WX    TMP DP  RH WIND       PRES   REMARKS
Central Park   CLEAR     72  60  66 CALM      30.07S
Bronx Bot Gard   N/A     66  55  68 NE1       30.04F
LaGuardia APRT CLEAR     72  62  71 CALM      30.03S
Kennedy INTL   CLEAR     68  58  70 N6        30.04F
Breezy Point     N/A     70 N/A N/A N3          N/A
Newark/Liberty CLEAR     68  58  70 NE6       30.04S
Teterboro      CLEAR     69  59  70 CALM      30.03S
$$

NYZ177-179-078>081-240800-
LONG ISLAND NEW YORK

CITY           SKY/WX    TMP DP  RH WIND       PRES   REMARKS
Jones Beach      N/A     66 N/A N/A E2          N/A
Matinecock PT    N/A     70 N/A N/A SW3         N/A
Farmingdale    CLEAR     65  61  87 CALM      30.04S
MacArthur/ISP  CLEAR     64  63  96 CALM      30.03S FOG
Shirley        CLEAR     63  61  93 CALM      30.03F
Mt Sinai Harb    N/A    N/A N/A N/A MISG        N/A
Westhampton    CLOUDY    54  52  93 CALM      30.05S FOG
East Hampton   FAIR      57  56  95 CALM      30.02S
Montauk          N/A     61  60  97 CALM      30.03F
$$

NYZ052-065-067-240800-
HUDSON VALLEY

CITY           SKY/WX    TMP DP  RH WIND       PRES   REMARKS
White Plains   CLEAR     69  56  62 N8        30.04S
Larchmont Harb   N/A     68 N/A N/A W1          N/A
Croton On Huds   N/A     66 N/A N/A NE3         N/A
Newburgh       CLEAR     63  61  94 CALM      30.08F
Montgomery     CLEAR     60  59  96 CALM      30.07S
Poughkeepsie   CLEAR     58  56  93 CALM      30.06S
Albany         CLEAR     63  58  83 CALM      30.08R
$$

NJZ001-105-106-008-010-013-015-019>022-104-240800-
NEW JERSEY

CITY           SKY/WX    TMP DP  RH WIND       PRES   REMARKS
Newark/Liberty CLEAR     68  58  70 NE6       30.04S
Teterboro      CLEAR     69  59  70 CALM      30.03S
Caldwell       CLEAR     63  62  97 CALM      30.06S
Somerville     NOT AVBL
Linden         FAIR      69  57  66 CALM      30.04S
Perth Amboy      N/A     70 N/A N/A W2          N/A
Sussex         CLEAR     59  59 100 CALM      30.08S
Andover          N/A     60  59  96 CALM      30.09S
Trenton        PTCLDY    68  60  75 NW6       30.04S
Millville      CLEAR     64  61  90 CALM      30.03S
Atlantic City  CLEAR     66  63  90 CALM      30.03S
Wrightstown    NOT AVBL
Toms River     CLEAR     58  56  93 CALM      30.04S
Belmar         CLEAR     64  59  83 NW5       30.05S
$$

PAZ047>061-062-071-240800-
EASTERN PENNSYLVANIA

CITY           SKY/WX    TMP DP  RH WIND       PRES   REMARKS
Philadelphia   CLEAR     71  60  68 N6        30.04S
Allentown      CLEAR     64  60  87 SW5       30.08S
Scranton       CLEAR     62  60  93 CALM      30.13R
$$

CTZ002-004>006-009-010-012-RIZ004-006-007-MAZ004-011-015-240800-
SOUTHERN NEW ENGLAND
 IN CT

CITY           SKY/WX    TMP DP  RH WIND       PRES   REMARKS
Bradley INTL   CLEAR     61  59  93 NW3       30.04S
Hartford       CLEAR     62  61  96 CALM      30.03F
Danbury        CLEAR     60  57  89 SW3       30.07S
Wtrbury/Oxford CLEAR     63  57  81 N7        30.06F
Norwalk Harbor   N/A     66 N/A N/A CALM        N/A
Bridgeport     CLEAR     65  59  81 CALM      30.03S
Meriden        CLEAR     58  57  97 CALM      30.04S
New Haven      CLEAR     61  58  90 N5        30.03F
Chester        FAIR      64  61  88 N5        30.04S
Groton         CLEAR     60  59  96 N3        30.02S
Wilimantic     CLEAR     61  60  97 CALM      30.04S

 IN RI

CITY           SKY/WX    TMP DP  RH WIND       PRES   REMARKS
Providence     CLEAR     61  61 100 CALM      30.03S
Block Island   CLEAR     63  62  97 CALM      30.03R
Westerly       CLEAR     61  59  93 MISG      30.03S
 IN MA

CITY           SKY/WX    TMP DP  RH WIND       PRES   REMARKS
Boston         PTCLDY    63  62  97 CALM      30.03R
Worcester      CLEAR     68  56  65 NW3       30.06S
Westfield      CLEAR     61  59  93 N3        30.05S
Provincetown   FOG       59  58  96 N5        30.02F VSB 1/2
Nantucket      FOG       62  62 100 N14       30.00R VSB 3/4
$$

ANZ330-335-338-340-345-350-353-355-240800-
COASTAL MARINE OBSERVATIONS


STATION/POSITION TIME  SKY/WX   TEMP    WIND        PRES    VSBY  WAVE
                                AIR SEA DIR/SP/G                  HT/PER
                 (UTC)          (F)     (DEG/KT/KT) (MB)    (MI)  (FT/S)
NY HARB ENTRANCE 0550            72 71  360/  4/  6 1016.2          4/13
20 S FIRE ISLAND 0550            67 67  230/  2/  4 1017.1          4/14
GREAT SOUTH BAY  0630            67 70  300/  4/  4   N/A
23 SSW MONTAUK P 0550            62 63              1017.0          5/14
15 E BARNEGAT LI 0630               70                N/A           4/12
HUDSON CANYON    0550            68 68  320/  6/  8 1015.9          5/14
KINGS POINT      0648            68 71   CALM  /  1 1017.8
EXECUTION ROCKS  0645            71     350/  2/  4   N/A
WESTERN LI SOUND NOT AVBL
CENTRAL LI SOUND NOT AVBL
EASTERN LI SOUND NOT AVBL
ROBBINS REEF     0648            75     340/  7/  9 1017.6
$$


>>>>>>>>>>>>>>>>>>>>>>>>>>>> KEY <<<<<<<<<<<<<<<<<<<<<<<<<<<
>                                                          <
>     SKY/WX - Sky Condition/Present Weather               <
>     TMP    - Temperature in Fahrenheit                   <
>     DP     - Dew Point in Fahrenheit                     <
>     RH     - Relative Humidity in Percent                <
>     WIND   - Direction (from) and Speed in MPH           <
>     PRES   - Mean Sea Level Pressure (inches of Hg)      <
>     WCI    - Wind Chill Index                            <
>     VSB    - VISIBILITY IN MILES                         <
>     HX     - HEAT INDEX                                  <
>     TC     - TEMPERATURE IN CELSIUS                      <
>     VRB    - VARIABLE WIND DIRECTION                     <
>                                                          <
>>>>>>>>>>>>>>>>>>>>>>>>>>>> KEY <<<<<<<<<<<<<<<<<<<<<<<<<<<




USA.gov is the U.S. government's official web portal to all federal, state and local government web resources and services.